Location: Cactus School
(34.5700°N, 118.0931°W)
Time: 09:18:23
(UTC-07:00)

S-56A Canister/Altair - Pass Details

Date: 17 April 2024
Orbit: 638 x 2488 km, 38.9° (Epoch: 29 May)

Event Time Altitude Azimuth Distance (km) Brightness Sun altitude
Rises 02:06:37 0° 284° (WNW) 5,222 11.7 -41.4°
Enters shadow 02:07:50 - 281° (W) 4,969 11.5 -41.3°
Reaches altitude 10° 02:10:29 10° 273° (W) 4,477 - -41.0°
Maximum altitude 02:20:22 27° 223° (SW) 3,718 - -40.1°
Drops below altitude 10° 02:31:44 10° 173° (S) 5,138 - -38.9°
Sets 02:36:42 0° 162° (SSE) 6,114 - -38.3°
